DL9BGG-13 Weather Reports


time (UTC)temp
C
wind
direction
speed
KPH
gust
KPH
rain 1hr
cm
rain 24hr
cm
rain mn
cm
humidity
%
barometer
mb
20260502182058 16 315 6.4 0.0 0.00 0.00 0.00 70 1060.0
20260502181937 16 337 6.4 0.0 0.00 0.00 0.00 70 1060.0
20260502181824 16 0 0.0 0.0 0.00 0.00 0.00 70 1059.9
20260502181710 16 337 0.0 0.0 0.00 0.00 0.00 70 1060.0
20260502181550 16 315 6.4 0.0 0.00 0.00 0.00 70 1059.9
20260502181436 17 337 0.0 0.0 0.00 0.00 0.00 70 1059.9
20260502181307 17 315 3.2 0.0 0.00 0.00 0.00 70 1060.0
20260502181146 17 315 0.0 0.0 0.00 0.00 0.00 69 1060.0
20260502181042 17 315 6.4 0.0 0.00 0.00 0.00 69 1060.0
20260502180937 17 315 0.0 0.0 0.00 0.00 0.00 69 1060.0
20260502180830 17 315 1.6 0.0 0.00 0.00 0.00 69 1060.0
20260502180710 17 337 4.8 0.0 0.00 0.00 0.00 69 1060.0
20260502180556 17 315 4.8 0.0 0.00 0.00 0.00 69 1060.0
20260502180427 17 315 0.0 0.0 0.00 0.00 0.00 69 1060.0
20260502180314 17 315 9.7 0.0 0.00 0.00 0.00 69 1060.0
20260502180200 17 0 0.0 0.0 0.00 0.00 0.00 69 1060.1
20260502170422 18 315 9.7 0.0 0.00 0.00 0.00 69 1060.3
20260502170314 18 337 12.9 0.0 0.00 0.00 0.00 70 1060.3
20260502170201 18 315 4.8 0.0 0.00 0.00 0.00 70 1060.2
20260502164246 18 0 0.0 0.0 0.00 0.00 0.00 72 1060.3
20260502164137 18 337 9.7 0.0 0.00 0.00 0.00 72 1060.3
20260502164024 18 292 12.9 0.0 0.00 0.00 0.00 72 1060.3
20260502163910 18 315 14.5 0.0 0.00 0.00 0.00 73 1060.3
20260502163756 18 315 8.0 0.0 0.00 0.00 0.00 73 1060.3
20260502163644 18 315 6.4 0.0 0.00 0.00 0.00 73 1060.2
20260502163537 18 292 6.4 0.0 0.00 0.00 0.00 73 1060.3
20260502163416 18 315 6.4 0.0 0.00 0.00 0.00 73 1060.2
20260502163311 18 337 4.8 0.0 0.00 0.00 0.00 73 1060.2
20260502163149 18 337 0.0 0.0 0.00 0.00 0.00 73 1060.3
20260502163038 18 315 8.0 0.0 0.00 0.00 0.00 73 1060.3
20260502162932 18 337 6.4 0.0 0.00 0.00 0.00 73 1060.2
20260502162819 18 315 8.0 0.0 0.00 0.00 0.00 73 1060.3
20260502162713 18 292 11.3 0.0 0.00 0.00 0.00 73 1060.2
20260502162608 18 315 0.0 0.0 0.00 0.00 0.00 73 1060.3
20260502162501 18 337 9.7 0.0 0.00 0.00 0.00 73 1060.2
20260502162355 18 292 0.0 0.0 0.00 0.00 0.00 73 1060.4
20260502162248 18 315 6.4 0.0 0.00 0.00 0.00 73 1060.3
20260502162129 18 315 8.0 0.0 0.00 0.00 0.00 73 1060.3
20260502162021 18 337 17.7 0.0 0.00 0.00 0.00 73 1060.3
20260502161908 18 315 14.5 0.0 0.00 0.00 0.00 73 1060.3
20260502161756 18 315 6.4 0.0 0.00 0.00 0.00 73 1060.4
20260502161650 18 315 8.0 0.0 0.00 0.00 0.00 73 1060.4
20260502161530 18 315 11.3 0.0 0.00 0.00 0.00 73 1060.4
20260502161417 18 45 4.8 0.0 0.00 0.00 0.00 73 1060.3
20260502161312 18 292 3.2 0.0 0.00 0.00 0.00 73 1060.4
20260502161207 18 315 9.7 0.0 0.00 0.00 0.00 73 1060.4
20260502161058 18 315 6.4 0.0 0.00 0.00 0.00 73 1060.4
20260502160946 18 337 6.4 0.0 0.00 0.00 0.00 73 1060.3
20260502160841 18 315 9.7 0.0 0.00 0.00 0.00 73 1060.4
20260502160713 18 315 6.4 0.0 0.00 0.00 0.00 72 1060.4
20260502160559 18 315 6.4 0.0 0.00 0.00 0.00 72 1060.3
20260502160445 18 292 11.3 0.0 0.00 0.00 0.00 72 1060.3
20260502160331 18 337 6.4 0.0 0.00 0.00 0.00 72 1060.4
20260502160219 18 292 9.7 0.0 0.00 0.00 0.00 71 1060.4
20260502160105 18 270 14.5 0.0 0.00 0.00 0.00 71 1060.4
20260502152335 21 315 8.0 0.0 0.00 0.00 0.00 66 1060.4
20260502152229 21 292 9.7 0.0 0.00 0.00 0.00 66 1060.4
20260502152059 21 292 8.0 0.0 0.00 0.00 0.00 66 1060.5
20260502151945 21 315 8.0 0.0 0.00 0.00 0.00 66 1060.5
20260502151830 21 315 9.7 0.0 0.00 0.00 0.00 66 1060.5
20260502151709 21 0 4.8 0.0 0.00 0.00 0.00 66 1060.5
20260502151547 21 315 11.3 0.0 0.00 0.00 0.00 66 1060.5
20260502151428 21 337 6.4 0.0 0.00 0.00 0.00 66 1060.5
20260502151321 21 292 4.8 0.0 0.00 0.00 0.00 65 1060.5
20260502151208 21 292 16.1 0.0 0.00 0.00 0.00 65 1060.5
20260502151047 21 292 9.7 0.0 0.00 0.00 0.00 65 1060.6
20260502150934 21 270 4.8 0.0 0.00 0.00 0.00 66 1060.5
20260502150820 21 337 4.8 0.0 0.00 0.00 0.00 66 1060.5
20260502150652 21 292 6.4 0.0 0.00 0.00 0.00 66 1060.6
20260502150546 21 292 0.0 0.0 0.00 0.00 0.00 65 1060.6
20260502150440 21 337 0.0 0.0 0.00 0.00 0.00 65 1060.6
20260502150319 21 292 8.0 0.0 0.00 0.00 0.00 65 1060.7
20260502150204 21 315 14.5 0.0 0.00 0.00 0.00 65 1060.7
20260502140108 20 315 4.8 0.0 0.00 0.00 0.00 64 1061.0
20260502130633 21 315 6.4 0.0 0.00 0.00 0.00 48 1061.4
20260502130526 22 292 9.7 0.0 0.00 0.00 0.00 48 1061.3
20260502130413 22 292 9.7 0.0 0.00 0.00 0.00 47 1061.3
20260502130300 22 315 11.3 0.0 0.00 0.00 0.00 47 1061.3
20260502130138 22 315 9.7 0.0 0.00 0.00 0.00 47 1061.3
20260502123750 20 315 8.0 0.0 0.00 0.00 0.00 54 1061.5
20260502123643 20 292 4.8 0.0 0.00 0.00 0.00 55 1061.6
20260502123522 20 292 9.7 0.0 0.00 0.00 0.00 55 1061.6
20260502123409 20 315 6.4 0.0 0.00 0.00 0.00 55 1061.5
20260502123255 20 270 8.0 0.0 0.00 0.00 0.00 56 1061.5
20260502123135 20 315 1.6 0.0 0.00 0.00 0.00 56 1061.6
20260502123030 20 315 8.0 0.0 0.00 0.00 0.00 57 1061.6
20260502122923 20 270 6.4 0.0 0.00 0.00 0.00 57 1061.6
20260502122804 20 292 9.7 0.0 0.00 0.00 0.00 57 1061.7
20260502122650 20 270 3.2 0.0 0.00 0.00 0.00 57 1061.6
20260502122536 20 337 6.4 0.0 0.00 0.00 0.00 57 1061.7
20260502122424 20 292 8.0 0.0 0.00 0.00 0.00 57 1061.7
20260502122310 20 292 4.8 0.0 0.00 0.00 0.00 57 1061.7
20260502122149 20 337 0.0 0.0 0.00 0.00 0.00 56 1061.7
20260502122020 20 292 9.7 0.0 0.00 0.00 0.00 56 1061.7
20260502121907 20 292 11.3 0.0 0.00 0.00 0.00 55 1061.7
20260502121802 20 292 11.3 0.0 0.00 0.00 0.00 55 1061.7
20260502121643 20 315 0.0 0.0 0.00 0.00 0.00 54 1061.7
20260502121538 20 292 9.7 0.0 0.00 0.00 0.00 54 1061.7
20260502121431 21 292 6.4 0.0 0.00 0.00 0.00 53 1061.7
20260502121309 21 292 8.0 0.0 0.00 0.00 0.00 52 1061.7
20260502121148 21 315 9.7 0.0 0.00 0.00 0.00 52 1061.6
20260502121035 22 270 16.1 0.0 0.00 0.00 0.00 50 1061.6
20260502120914 22 292 24.1 0.0 0.00 0.00 0.00 50 1061.6
20260502120801 22 315 16.1 0.0 0.00 0.00 0.00 49 1061.7
20260502120647 22 292 9.7 0.0 0.00 0.00 0.00 49 1061.7
20260502120535 22 270 17.7 0.0 0.00 0.00 0.00 48 1061.7
20260502120421 22 270 6.4 0.0 0.00 0.00 0.00 48 1061.7
20260502120301 22 292 6.4 0.0 0.00 0.00 0.00 48 1061.7
20260502120148 22 315 6.4 0.0 0.00 0.00 0.00 47 1061.7
20260502115833 23 270 9.7 0.0 0.00 0.00 0.00 47 1061.7
20260502115727 23 270 11.3 0.0 0.00 0.00 0.00 47 1061.6
20260502115606 23 292 6.4 0.0 0.00 0.00 0.00 46 1061.7
20260502115453 23 270 8.0 0.0 0.00 0.00 0.00 46 1061.6
20260502115340 23 315 9.7 0.0 0.00 0.00 0.00 46 1061.7
20260502115235 23 292 8.0 0.0 0.00 0.00 0.00 47 1061.6
20260502115123 23 292 8.0 0.0 0.00 0.00 0.00 46 1061.6
20260502115017 22 270 9.7 0.0 0.00 0.00 0.00 46 1061.6
20260502114906 22 247 11.3 0.0 0.00 0.00 0.00 46 1061.7
20260502114759 22 315 8.0 0.0 0.00 0.00 0.00 46 1061.7
20260502114647 22 315 8.0 0.0 0.00 0.00 0.00 46 1061.7
20260502114540 22 292 9.7 0.0 0.00 0.00 0.00 46 1061.7
20260502114425 22 292 9.7 0.0 0.00 0.00 0.00 45 1061.8
20260502114305 22 315 14.5 0.0 0.00 0.00 0.00 45 1061.8
20260502114155 22 315 9.7 0.0 0.00 0.00 0.00 45 1061.8
20260502114050 22 270 12.9 0.0 0.00 0.00 0.00 45 1061.8
20260502113943 22 315 3.2 0.0 0.00 0.00 0.00 45 1061.8
20260502113830 22 292 6.4 0.0 0.00 0.00 0.00 45 1061.8
20260502113726 22 315 6.4 0.0 0.00 0.00 0.00 46 1061.7
20260502113620 22 292 9.7 0.0 0.00 0.00 0.00 46 1061.8
20260502113510 22 292 3.2 0.0 0.00 0.00 0.00 46 1061.8
20260502113405 21 315 9.7 0.0 0.00 0.00 0.00 46 1061.8
20260502113252 21 292 8.0 0.0 0.00 0.00 0.00 46 1061.8
20260502113144 21 247 9.7 0.0 0.00 0.00 0.00 46 1061.8
20260502113034 21 270 4.8 0.0 0.00 0.00 0.00 46 1061.8
20260502112927 21 270 4.8 0.0 0.00 0.00 0.00 45 1061.7
20260502112805 21 292 11.3 0.0 0.00 0.00 0.00 45 1061.8
20260502112653 21 292 9.7 0.0 0.00 0.00 0.00 45 1061.8
20260502112547 22 270 9.7 0.0 0.00 0.00 0.00 45 1061.8
20260502112435 22 292 6.4 0.0 0.00 0.00 0.00 44 1061.8
20260502112309 22 292 6.4 0.0 0.00 0.00 0.00 43 1061.8
20260502112204 22 292 9.7 0.0 0.00 0.00 0.00 43 1061.8
20260502112057 23 315 3.2 0.0 0.00 0.00 0.00 43 1061.6
20260502111945 23 292 16.1 0.0 0.00 0.00 0.00 43 1061.8
20260502111833 23 292 8.0 0.0 0.00 0.00 0.00 41 1061.8
20260502111727 23 292 6.4 0.0 0.00 0.00 0.00 38 1061.8
20260502111622 23 270 0.0 0.0 0.00 0.00 0.00 38 1061.8
20260502111509 24 247 3.2 0.0 0.00 0.00 0.00 38 1061.8
20260502111357 24 292 3.2 0.0 0.00 0.00 0.00 38 1061.7
20260502111246 24 270 0.0 0.0 0.00 0.00 0.00 38 1061.8
20260502111138 25 247 0.0 0.0 0.00 0.00 0.00 37 1061.7
20260502111027 25 292 6.4 0.0 0.00 0.00 0.00 37 1061.7
20260502110921 25 247 0.0 0.0 0.00 0.00 0.00 37 1061.7
20260502110808 25 225 6.4 0.0 0.00 0.00 0.00 36 1061.7
20260502110658 25 225 0.0 0.0 0.00 0.00 0.00 36 1061.7
20260502110550 26 225 16.1 0.0 0.00 0.00 0.00 36 1061.7
20260502110430 26 225 4.8 0.0 0.00 0.00 0.00 36 1061.7
20260502110324 26 270 9.7 0.0 0.00 0.00 0.00 36 1061.6
20260502110213 26 180 6.4 0.0 0.00 0.00 0.00 36 1061.7
20260502110107 26 202 0.0 0.0 0.00 0.00 0.00 35 1061.6
20260502105933 26 247 11.3 0.0 0.00 0.00 0.00 34 1061.7
20260502105810 26 225 3.2 0.0 0.00 0.00 0.00 34 1061.7
20260502105657 27 270 6.4 0.0 0.00 0.00 0.00 34 1061.7
20260502105552 27 180 4.8 0.0 0.00 0.00 0.00 34 1061.6
20260502105430 27 225 6.4 0.0 0.00 0.00 0.00 34 1061.7
20260502105309 26 270 8.0 0.0 0.00 0.00 0.00 34 1061.8
20260502105158 26 225 8.0 0.0 0.00 0.00 0.00 34 1061.7
20260502105052 26 247 8.0 0.0 0.00 0.00 0.00 34 1061.7
20260502104939 26 202 12.9 0.0 0.00 0.00 0.00 35 1061.6
20260502104819 26 202 16.1 0.0 0.00 0.00 0.00 36 1061.7
20260502104707 26 180 8.0 0.0 0.00 0.00 0.00 36 1061.7
20260502104600 26 225 4.8 0.0 0.00 0.00 0.00 38 1061.7
20260502104439 25 180 6.4 0.0 0.00 0.00 0.00 38 1061.7
20260502104327 25 202 8.0 0.0 0.00 0.00 0.00 37 1061.7
20260502104221 25 180 12.9 0.0 0.00 0.00 0.00 38 1061.7
20260502104052 25 202 12.9 0.0 0.00 0.00 0.00 38 1061.7
20260502103930 25 202 0.0 0.0 0.00 0.00 0.00 38 1061.7
20260502103819 25 157 0.0 0.0 0.00 0.00 0.00 38 1061.7
20260502103706 25 202 8.0 0.0 0.00 0.00 0.00 38 1061.7
20260502103601 25 202 0.0 0.0 0.00 0.00 0.00 38 1061.8
20260502103456 25 202 4.8 0.0 0.00 0.00 0.00 37 1061.7
20260502103350 25 202 3.2 0.0 0.00 0.00 0.00 37 1061.7
20260502103237 25 180 12.9 0.0 0.00 0.00 0.00 37 1061.8
20260502103124 25 225 12.9 0.0 0.00 0.00 0.00 36 1061.7
20260502102957 25 180 12.9 0.0 0.00 0.00 0.00 36 1061.8
20260502102851 26 202 11.3 0.0 0.00 0.00 0.00 36 1061.8
20260502102746 26 247 8.0 0.0 0.00 0.00 0.00 36 1061.8
20260502102633 26 157 1.6 0.0 0.00 0.00 0.00 35 1061.7
20260502102515 26 180 6.4 0.0 0.00 0.00 0.00 35 1061.8
20260502102409 26 202 4.8 0.0 0.00 0.00 0.00 35 1061.8
20260502102256 26 157 6.4 0.0 0.00 0.00 0.00 36 1061.7
20260502102144 26 180 4.8 0.0 0.00 0.00 0.00 36 1061.8
20260502102040 26 157 3.2 0.0 0.00 0.00 0.00 36 1061.8
20260502101934 26 180 3.2 0.0 0.00 0.00 0.00 35 1061.7
20260502101829 26 180 8.0 0.0 0.00 0.00 0.00 36 1061.7
20260502101725 26 135 4.8 0.0 0.00 0.00 0.00 36 1061.8
20260502101617 26 157 8.0 0.0 0.00 0.00 0.00 37 1061.8
20260502101458 26 202 11.3 0.0 0.00 0.00 0.00 36 1061.8
20260502101355 26 180 6.4 0.0 0.00 0.00 0.00 37 1061.7
20260502101249 25 202 0.0 0.0 0.00 0.00 0.00 38 1061.6
20260502101144 25 225 0.0 0.0 0.00 0.00 0.00 37 1061.7
20260502101037 25 202 14.5 0.0 0.00 0.00 0.00 37 1061.7
20260502100925 25 180 9.7 0.0 0.00 0.00 0.00 37 1061.8
20260502100819 25 157 0.0 0.0 0.00 0.00 0.00 38 1061.9
20260502100706 25 157 6.4 0.0 0.00 0.00 0.00 37 1061.9
20260502100554 25 180 8.0 0.0 0.00 0.00 0.00 37 1062.0
20260502100442 25 180 9.7 0.0 0.00 0.00 0.00 37 1062.0
20260502100336 25 180 1.6 0.0 0.00 0.00 0.00 37 1062.0
20260502100230 25 157 3.2 0.0 0.00 0.00 0.00 37 1062.0
20260502100110 25 157 8.0 0.0 0.00 0.00 0.00 36 1062.1
20260502091452 25 157 9.7 0.0 0.00 0.00 0.00 38 1062.3
20260502091338 25 157 9.7 0.0 0.00 0.00 0.00 38 1062.3
20260502091227 25 180 8.0 0.0 0.00 0.00 0.00 38 1062.3
20260502091120 25 180 4.8 0.0 0.00 0.00 0.00 38 1062.3
20260502091000 25 157 6.4 0.0 0.00 0.00 0.00 38 1062.3
20260502090857 25 202 9.7 0.0 0.00 0.00 0.00 39 1062.3
20260502090750 25 202 16.1 0.0 0.00 0.00 0.00 39 1062.3
20260502090645 25 157 9.7 0.0 0.00 0.00 0.00 38 1062.3
20260502090540 25 157 11.3 0.0 0.00 0.00 0.00 38 1062.3
20260502090435 25 157 14.5 0.0 0.00 0.00 0.00 38 1062.3
20260502090329 25 157 14.5 0.0 0.00 0.00 0.00 37 1062.4
20260502090209 25 135 9.7 0.0 0.00 0.00 0.00 37 1062.4
20260502071441 21 180 6.4 0.0 0.00 0.00 0.00 47 1062.9
20260502071319 21 157 16.1 0.0 0.00 0.00 0.00 48 1062.8
20260502071206 21 180 9.7 0.0 0.00 0.00 0.00 47 1062.8
20260502071055 21 135 6.4 0.0 0.00 0.00 0.00 47 1062.8
20260502070948 20 157 8.0 0.0 0.00 0.00 0.00 48 1062.8
20260502070836 20 180 4.8 0.0 0.00 0.00 0.00 48 1062.9
20260502070730 20 157 12.9 0.0 0.00 0.00 0.00 48 1062.9
20260502070625 20 157 8.0 0.0 0.00 0.00 0.00 47 1062.8
20260502070503 20 135 3.2 0.0 0.00 0.00 0.00 47 1062.9
20260502070350 20 157 11.3 0.0 0.00 0.00 0.00 50 1062.8
20260502070222 20 157 0.0 0.0 0.00 0.00 0.00 50 1062.9
20260502070119 20 202 6.4 0.0 0.00 0.00 0.00 50 1062.9
20260502070013 20 202 6.4 0.0 0.00 0.00 0.00 52 1062.9
20260502065859 19 202 4.8 0.0 0.00 0.00 0.00 52 1062.9
20260502065753 19 157 8.0 0.0 0.00 0.00 0.00 52 1062.9
20260502065640 19 157 8.0 0.0 0.00 0.00 0.00 52 1062.9
20260502065518 18 157 9.7 0.0 0.00 0.00 0.00 52 1062.9
20260502065406 18 157 9.7 0.0 0.00 0.00 0.00 53 1062.9
20260502065252 18 202 9.7 0.0 0.00 0.00 0.00 54 1062.9
20260502065133 18 157 12.9 0.0 0.00 0.00 0.00 55 1062.9
20260502065019 18 157 9.7 0.0 0.00 0.00 0.00 55 1062.9
20260502064913 18 157 8.0 0.0 0.00 0.00 0.00 54 1062.8
20260502064759 18 202 11.3 0.0 0.00 0.00 0.00 54 1062.9
20260502064638 18 202 9.7 0.0 0.00 0.00 0.00 55 1062.8
20260502064518 18 157 6.4 0.0 0.00 0.00 0.00 54 1062.8
20260502064413 18 180 17.7 0.0 0.00 0.00 0.00 54 1062.9
20260502064307 18 157 6.4 0.0 0.00 0.00 0.00 55 1062.8
20260502064147 17 157 9.7 0.0 0.00 0.00 0.00 56 1062.8
20260502064041 17 157 9.7 0.0 0.00 0.00 0.00 55 1062.9
20260502063928 17 157 8.0 0.0 0.00 0.00 0.00 56 1062.9
20260502063814 17 180 8.0 0.0 0.00 0.00 0.00 55 1062.9
20260502063646 17 202 12.9 0.0 0.00 0.00 0.00 55 1063.0
20260502063533 17 157 14.5 0.0 0.00 0.00 0.00 56 1063.0
20260502063420 17 202 9.7 0.0 0.00 0.00 0.00 56 1063.0
20260502063307 17 180 11.3 0.0 0.00 0.00 0.00 56 1062.9
20260502063153 17 225 14.5 0.0 0.00 0.00 0.00 56 1062.9
20260502063039 17 157 11.3 0.0 0.00 0.00 0.00 56 1062.9
20260502062927 17 180 9.7 0.0 0.00 0.00 0.00 56 1062.9
20260502062816 17 180 11.3 0.0 0.00 0.00 0.00 56 1062.9
20260502062708 16 157 8.0 0.0 0.00 0.00 0.00 56 1062.9
20260502062547 16 135 9.7 0.0 0.00 0.00 0.00 56 1062.9
20260502062426 17 180 14.5 0.0 0.00 0.00 0.00 55 1062.9
20260502062306 17 180 16.1 0.0 0.00 0.00 0.00 56 1062.9
20260502062200 17 135 9.7 0.0 0.00 0.00 0.00 56 1062.9
20260502062038 16 180 6.4 0.0 0.00 0.00 0.00 56 1063.0
20260502061917 16 202 12.9 0.0 0.00 0.00 0.00 57 1062.9
20260502061749 16 180 9.7 0.0 0.00 0.00 0.00 57 1062.9
20260502061642 16 157 14.5 0.0 0.00 0.00 0.00 58 1062.9
20260502061530 16 157 9.7 0.0 0.00 0.00 0.00 58 1062.9
20260502061424 16 157 14.5 0.0 0.00 0.00 0.00 58 1062.9
20260502061303 16 180 8.0 0.0 0.00 0.00 0.00 58 1062.9
20260502061152 16 180 9.7 0.0 0.00 0.00 0.00 58 1063.0
20260502061046 16 157 14.5 0.0 0.00 0.00 0.00 58 1062.9
20260502060939 16 157 9.7 0.0 0.00 0.00 0.00 58 1062.9
20260502060825 16 157 4.8 0.0 0.00 0.00 0.00 58 1062.9
20260502060700 16 157 11.3 0.0 0.00 0.00 0.00 58 1063.0
20260502060552 16 157 16.1 0.0 0.00 0.00 0.00 58 1062.9
20260502060439 16 157 9.7 0.0 0.00 0.00 0.00 58 1062.9
20260502060334 15 180 14.5 0.0 0.00 0.00 0.00 59 1062.9
20260502060229 15 157 9.7 0.0 0.00 0.00 0.00 58 1063.0
20260502060107 15 157 12.9 0.0 0.00 0.00 0.00 58 1062.9
20260502055938 15 180 16.1 0.0 0.00 0.00 0.00 59 1063.0
20260502055817 15 180 6.4 0.0 0.00 0.00 0.00 59 1063.0
20260502055704 15 180 12.9 0.0 0.00 0.00 0.00 59 1063.0
20260502055553 15 157 14.5 0.0 0.00 0.00 0.00 59 1063.0
20260502055448 15 180 12.9 0.0 0.00 0.00 0.00 59 1063.0
20260502055340 15 202 9.7 0.0 0.00 0.00 0.00 59 1062.9
20260502055221 15 180 9.7 0.0 0.00 0.00 0.00 59 1063.0
20260502055117 15 157 6.4 0.0 0.00 0.00 0.00 59 1063.0
20260502055009 15 157 14.5 0.0 0.00 0.00 0.00 60 1063.1
20260502054857 15 135 6.4 0.0 0.00 0.00 0.00 60 1063.1
20260502054752 15 157 9.7 0.0 0.00 0.00 0.00 60 1063.0
20260502054646 15 157 11.3 0.0 0.00 0.00 0.00 60 1063.1
20260502054536 15 180 8.0 0.0 0.00 0.00 0.00 61 1063.0
20260502054430 15 157 8.0 0.0 0.00 0.00 0.00 61 1063.1
20260502054309 14 180 8.0 0.0 0.00 0.00 0.00 61 1063.1
20260502054202 14 157 12.9 0.0 0.00 0.00 0.00 61 1063.1
20260502054049 14 180 9.7 0.0 0.00 0.00 0.00 61 1063.1
20260502053944 14 180 12.9 0.0 0.00 0.00 0.00 61 1063.1
20260502053832 14 225 11.3 0.0 0.00 0.00 0.00 61 1063.2
20260502053710 14 180 12.9 0.0 0.00 0.00 0.00 62 1063.2
20260502053557 14 157 6.4 0.0 0.00 0.00 0.00 62 1063.2
20260502053451 13 180 9.7 0.0 0.00 0.00 0.00 63 1063.2
20260502053332 13 180 12.9 0.0 0.00 0.00 0.00 63 1063.2
20260502053225 13 180 9.7 0.0 0.00 0.00 0.00 62 1063.1
20260502053115 13 180 8.0 0.0 0.00 0.00 0.00 62 1063.2
20260502053008 13 180 11.3 0.0 0.00 0.00 0.00 62 1063.2
20260502052902 13 180 11.3 0.0 0.00 0.00 0.00 62 1063.2
20260502052740 13 202 12.9 0.0 0.00 0.00 0.00 62 1063.2
20260502052620 13 157 8.0 0.0 0.00 0.00 0.00 62 1063.2
20260502052506 13 180 12.9 0.0 0.00 0.00 0.00 63 1063.2
20260502052337 13 157 8.0 0.0 0.00 0.00 0.00 63 1063.1
20260502052224 13 180 16.1 0.0 0.00 0.00 0.00 63 1063.2
20260502052105 13 180 11.3 0.0 0.00 0.00 0.00 64 1063.1
20260502051957 13 157 14.5 0.0 0.00 0.00 0.00 64 1063.1
20260502051836 13 157 6.4 0.0 0.00 0.00 0.00 64 1063.2
20260502051725 13 157 16.1 0.0 0.00 0.00 0.00 64 1063.2
20260502051611 13 180 9.7 0.0 0.00 0.00 0.00 64 1063.1
20260502051504 13 157 8.0 0.0 0.00 0.00 0.00 64 1063.2
20260502051343 13 180 12.9 0.0 0.00 0.00 0.00 64 1063.2
20260502051229 13 157 11.3 0.0 0.00 0.00 0.00 64 1063.1
20260502051108 13 157 9.7 0.0 0.00 0.00 0.00 64 1063.3
20260502050954 13 180 12.9 0.0 0.00 0.00 0.00 64 1063.3
20260502050840 13 180 16.1 0.0 0.00 0.00 0.00 64 1063.4
20260502050718 13 180 9.7 0.0 0.00 0.00 0.00 64 1063.4
20260502050555 13 157 11.3 0.0 0.00 0.00 0.00 64 1063.3
20260502050445 13 157 9.7 0.0 0.00 0.00 0.00 65 1063.2
20260502050328 13 180 11.3 0.0 0.00 0.00 0.00 65 1063.3
20260502050217 13 180 8.0 0.0 0.00 0.00 0.00 65 1063.2
20260502050111 12 157 12.9 0.0 0.00 0.00 0.00 65 1063.2
20260502050006 13 180 9.7 0.0 0.00 0.00 0.00 65 1063.2
20260502045900 13 157 8.0 0.0 0.00 0.00 0.00 65 1063.2
20260502045757 13 157 11.3 0.0 0.00 0.00 0.00 65 1063.2
20260502045650 12 180 14.5 0.0 0.00 0.00 0.00 65 1063.2
20260502045545 12 180 9.7 0.0 0.00 0.00 0.00 65 1063.2
20260502045440 12 180 11.3 0.0 0.00 0.00 0.00 65 1063.2
20260502045327 12 180 14.5 0.0 0.00 0.00 0.00 65 1063.3
20260502045207 12 157 6.4 0.0 0.00 0.00 0.00 65 1063.2
20260502045045 12 157 11.3 0.0 0.00 0.00 0.00 65 1063.2
20260502044926 12 180 6.4 0.0 0.00 0.00 0.00 65 1063.2
20260502044819 12 180 9.7 0.0 0.00 0.00 0.00 65 1063.2
20260502044708 12 180 8.0 0.0 0.00 0.00 0.00 66 1063.1
20260502044555 12 180 9.7 0.0 0.00 0.00 0.00 66 1063.2
20260502044442 12 157 9.7 0.0 0.00 0.00 0.00 66 1063.3
20260502044335 12 157 0.0 0.0 0.00 0.00 0.00 66 1063.2
20260502044214 12 157 12.9 0.0 0.00 0.00 0.00 67 1063.3
20260502044109 12 180 8.0 0.0 0.00 0.00 0.00 67 1063.1
20260502043948 12 180 4.8 0.0 0.00 0.00 0.00 67 1063.2
20260502043833 12 180 4.8 0.0 0.00 0.00 0.00 68 1063.3
20260502043712 12 180 4.8 0.0 0.00 0.00 0.00 68 1063.2
20260502043551 12 180 0.0 0.0 0.00 0.00 0.00 68 1063.2
20260502043439 11 180 12.9 0.0 0.00 0.00 0.00 69 1063.3
20260502043326 11 180 4.8 0.0 0.00 0.00 0.00 69 1063.2
20260502043204 11 157 9.7 0.0 0.00 0.00 0.00 70 1063.2
20260502043050 11 180 4.8 0.0 0.00 0.00 0.00 70 1063.2
20260502042931 11 180 0.0 0.0 0.00 0.00 0.00 70 1063.2
20260502042814 11 180 9.7 0.0 0.00 0.00 0.00 70 1063.2
20260502042701 11 157 0.0 0.0 0.00 0.00 0.00 71 1063.1
20260502042554 11 180 9.7 0.0 0.00 0.00 0.00 71 1063.2
20260502042442 11 180 0.0 0.0 0.00 0.00 0.00 71 1063.1
20260502042328 11 180 12.9 0.0 0.00 0.00 0.00 71 1063.2
20260502042213 11 180 9.7 0.0 0.00 0.00 0.00 71 1063.2
20260502042058 11 180 8.0 0.0 0.00 0.00 0.00 71 1063.1
20260502041950 11 180 6.4 0.0 0.00 0.00 0.00 71 1063.2
20260502041821 11 157 11.3 0.0 0.00 0.00 0.00 71 1063.3
20260502041707 11 180 9.7 0.0 0.00 0.00 0.00 71 1063.2
20260502041554 11 202 11.3 0.0 0.00 0.00 0.00 71 1063.3
20260502041449 11 180 8.0 0.0 0.00 0.00 0.00 71 1063.3
20260502041340 11 157 9.7 0.0 0.00 0.00 0.00 71 1063.3
20260502041220 11 202 8.0 0.0 0.00 0.00 0.00 71 1063.3
20260502041113 11 135 9.7 0.0 0.00 0.00 0.00 71 1063.4
20260502040959 11 180 11.3 0.0 0.00 0.00 0.00 71 1063.3
20260502040845 11 180 8.0 0.0 0.00 0.00 0.00 71 1063.2
20260502040741 11 180 9.7 0.0 0.00 0.00 0.00 71 1063.3
20260502040634 11 180 9.7 0.0 0.00 0.00 0.00 71 1063.4
20260502040525 11 157 6.4 0.0 0.00 0.00 0.00 71 1063.3
20260502040414 11 157 9.7 0.0 0.00 0.00 0.00 71 1063.3
20260502040258 11 180 11.3 0.0 0.00 0.00 0.00 71 1063.4
20260502040144 11 157 9.7 0.0 0.00 0.00 0.00 71 1063.4
20260502040022 11 157 8.0 0.0 0.00 0.00 0.00 71 1063.3
20260502035909 11 157 9.7 0.0 0.00 0.00 0.00 71 1063.4
20260502035756 11 180 9.7 0.0 0.00 0.00 0.00 71 1063.4
20260502035649 11 180 4.8 0.0 0.00 0.00 0.00 71 1063.4
20260502035535 11 157 11.3 0.0 0.00 0.00 0.00 71 1063.4
20260502035415 11 180 9.7 0.0 0.00 0.00 0.00 71 1063.4
20260502035307 11 157 9.7 0.0 0.00 0.00 0.00 71 1063.5
20260502035152 11 157 9.7 0.0 0.00 0.00 0.00 71 1063.5
20260502035038 11 157 8.0 0.0 0.00 0.00 0.00 71 1063.5
20260502034916 11 157 9.7 0.0 0.00 0.00 0.00 71 1063.5
20260502034802 11 157 0.0 0.0 0.00 0.00 0.00 71 1063.5
20260502034647 11 157 9.7 0.0 0.00 0.00 0.00 71 1063.6
20260502034524 11 180 6.4 0.0 0.00 0.00 0.00 70 1063.5
20260502034410 11 180 8.0 0.0 0.00 0.00 0.00 70 1063.5
20260502034250 11 180 9.7 0.0 0.00 0.00 0.00 70 1063.5
20260502034136 11 157 9.7 0.0 0.00 0.00 0.00 71 1063.5
20260502034028 11 157 3.2 0.0 0.00 0.00 0.00 71 1063.5
20260502033914 11 157 9.7 0.0 0.00 0.00 0.00 71 1063.6
20260502033806 11 157 8.0 0.0 0.00 0.00 0.00 71 1063.5
20260502033646 11 157 9.7 0.0 0.00 0.00 0.00 71 1063.5
20260502033531 11 157 6.4 0.0 0.00 0.00 0.00 71 1063.5
20260502033417 11 180 14.5 0.0 0.00 0.00 0.00 71 1063.6
20260502033311 11 157 11.3 0.0 0.00 0.00 0.00 71 1063.5
20260502033204 11 157 9.7 0.0 0.00 0.00 0.00 71 1063.6
20260502033035 11 157 8.0 0.0 0.00 0.00 0.00 71 1063.5
20260502032928 11 180 9.7 0.0 0.00 0.00 0.00 71 1063.6
20260502032814 11 157 9.7 0.0 0.00 0.00 0.00 71 1063.5
20260502032707 11 157 8.0 0.0 0.00 0.00 0.00 71 1063.5
20260502032553 11 157 9.7 0.0 0.00 0.00 0.00 71 1063.5
20260502032431 11 157 8.0 0.0 0.00 0.00 0.00 71 1063.6
20260502032317 11 180 9.7 0.0 0.00 0.00 0.00 71 1063.6
20260502032202 11 157 4.8 0.0 0.00 0.00 0.00 71 1063.6
20260502032043 11 157 4.8 0.0 0.00 0.00 0.00 71 1063.6
20260502031936 11 157 6.4 0.0 0.00 0.00 0.00 71 1063.5
20260502031822 11 157 6.4 0.0 0.00 0.00 0.00 71 1063.6
20260502031711 11 180 11.3 0.0 0.00 0.00 0.00 71 1063.5
20260502031602 11 180 3.2 0.0 0.00 0.00 0.00 71 1063.6
20260502031450 11 157 11.3 0.0 0.00 0.00 0.00 71 1063.6
20260502031344 11 157 4.8 0.0 0.00 0.00 0.00 71 1063.6
20260502031223 11 157 8.0 0.0 0.00 0.00 0.00 71 1063.6
20260502031118 11 157 6.4 0.0 0.00 0.00 0.00 71 1063.6
20260502031011 11 180 0.0 0.0 0.00 0.00 0.00 71 1063.7
20260502030906 11 180 4.8 0.0 0.00 0.00 0.00 71 1063.6
20260502030759 11 157 8.0 0.0 0.00 0.00 0.00 71 1063.6
20260502030653 11 180 6.4 0.0 0.00 0.00 0.00 71 1063.6
20260502030540 11 157 11.3 0.0 0.00 0.00 0.00 71 1063.6
20260502030417 11 157 4.8 0.0 0.00 0.00 0.00 71 1063.6
20260502030303 11 157 8.0 0.0 0.00 0.00 0.00 71 1063.7
20260502030142 11 157 8.0 0.0 0.00 0.00 0.00 71 1063.7
20260502030027 11 157 8.0 0.0 0.00 0.00 0.00 71 1063.8
20260502025913 11 157 8.0 0.0 0.00 0.00 0.00 71 1063.8
20260502025808 11 157 8.0 0.0 0.00 0.00 0.00 71 1063.8
20260502025701 11 180 6.4 0.0 0.00 0.00 0.00 71 1063.8
20260502025548 11 157 6.4 0.0 0.00 0.00 0.00 71 1063.8
20260502025441 11 157 0.0 0.0 0.00 0.00 0.00 71 1063.8
20260502025321 11 157 8.0 0.0 0.00 0.00 0.00 71 1063.7
20260502025212 11 157 0.0 0.0 0.00 0.00 0.00 71 1063.9
20260502025059 11 180 6.4 0.0 0.00 0.00 0.00 71 1063.8
20260502024952 11 157 6.4 0.0 0.00 0.00 0.00 71 1063.8
20260502024846 11 157 0.0 0.0 0.00 0.00 0.00 71 1063.8
20260502024724 11 157 0.0 0.0 0.00 0.00 0.00 71 1063.8
20260502024612 11 180 0.0 0.0 0.00 0.00 0.00 71 1063.7
20260502024503 11 180 8.0 0.0 0.00 0.00 0.00 71 1063.9
20260502024348 11 157 6.4 0.0 0.00 0.00 0.00 71 1064.0
20260502024229 11 157 0.0 0.0 0.00 0.00 0.00 71 1063.9
20260502024120 11 157 0.0 0.0 0.00 0.00 0.00 71 1063.9
20260502023958 11 157 0.0 0.0 0.00 0.00 0.00 71 1063.8
20260502023844 11 157 6.4 0.0 0.00 0.00 0.00 71 1063.9
20260502023721 11 157 0.0 0.0 0.00 0.00 0.00 71 1063.9
20260502023607 11 157 6.4 0.0 0.00 0.00 0.00 71 1064.0
20260502023455 11 157 0.0 0.0 0.00 0.00 0.00 71 1064.0
20260502023339 11 180 0.0 0.0 0.00 0.00 0.00 70 1064.0
20260502023224 11 157 8.0 0.0 0.00 0.00 0.00 70 1064.0
20260502023110 11 202 9.7 0.0 0.00 0.00 0.00 70 1064.0
20260502023004 11 157 0.0 0.0 0.00 0.00 0.00 70 1064.0
20260502022849 11 157 8.0 0.0 0.00 0.00 0.00 70 1064.1
20260502022727 11 180 0.0 0.0 0.00 0.00 0.00 70 1064.1
20260502022605 11 157 0.0 0.0 0.00 0.00 0.00 70 1064.1
20260502022453 11 157 0.0 0.0 0.00 0.00 0.00 70 1064.2
20260502022324 11 157 0.0 0.0 0.00 0.00 0.00 70 1064.1
20260502022210 11 180 0.0 0.0 0.00 0.00 0.00 70 1064.1
20260502022052 11 180 0.0 0.0 0.00 0.00 0.00 70 1064.2
20260502021912 11 180 0.0 0.0 0.00 0.00 0.00 70 1064.2
20260502021758 11 180 6.4 0.0 0.00 0.00 0.00 70 1064.2
20260502021653 11 157 0.0 0.0 0.00 0.00 0.00 70 1064.1
20260502021545 11 157 0.0 0.0 0.00 0.00 0.00 70 1064.1
20260502021425 11 157 4.8 0.0 0.00 0.00 0.00 70 1064.2
20260502021320 11 157 0.0 0.0 0.00 0.00 0.00 70 1064.2
20260502021212 11 157 0.0 0.0 0.00 0.00 0.00 70 1064.2
20260502021049 11 180 0.0 0.0 0.00 0.00 0.00 70 1064.3
20260502020920 11 180 0.0 0.0 0.00 0.00 0.00 70 1064.3
20260502020807 11 180 6.4 0.0 0.00 0.00 0.00 70 1064.4
20260502020701 11 180 0.0 0.0 0.00 0.00 0.00 70 1064.4
20260502020545 11 180 6.4 0.0 0.00 0.00 0.00 70 1064.4
20260502020431 11 157 6.4 0.0 0.00 0.00 0.00 70 1064.4
20260502020320 11 157 8.0 0.0 0.00 0.00 0.00 70 1064.4
20260502020212 11 180 0.0 0.0 0.00 0.00 0.00 70 1064.4
20260502020059 11 157 0.0 0.0 0.00 0.00 0.00 70 1064.4
20260502015946 11 157 0.0 0.0 0.00 0.00 0.00 70 1064.4
20260502015843 11 157 8.0 0.0 0.00 0.00 0.00 70 1064.4
20260502015736 11 157 8.0 0.0 0.00 0.00 0.00 70 1064.3
20260502015631 11 180 0.0 0.0 0.00 0.00 0.00 70 1064.4
20260502015509 11 180 6.4 0.0 0.00 0.00 0.00 70 1064.4
20260502015357 11 180 0.0 0.0 0.00 0.00 0.00 70 1064.4
20260502015237 11 157 0.0 0.0 0.00 0.00 0.00 70 1064.4
20260502015121 11 157 0.0 0.0 0.00 0.00 0.00 70 1064.4
20260502015000 11 157 0.0 0.0 0.00 0.00 0.00 70 1064.4
20260502014847 11 157 3.2 0.0 0.00 0.00 0.00 69 1064.4
20260502014727 11 157 0.0 0.0 0.00 0.00 0.00 69 1064.4
20260502014621 11 202 6.4 0.0 0.00 0.00 0.00 70 1064.4
20260502014507 11 157 0.0 0.0 0.00 0.00 0.00 69 1064.4
20260502014338 11 180 0.0 0.0 0.00 0.00 0.00 69 1064.5
20260502014226 11 157 0.0 0.0 0.00 0.00 0.00 69 1064.5
20260502014113 11 180 8.0 0.0 0.00 0.00 0.00 69 1064.5
20260502014008 11 157 9.7 0.0 0.00 0.00 0.00 69 1064.5
20260502013856 11 157 8.0 0.0 0.00 0.00 0.00 69 1064.5
20260502013750 11 157 0.0 0.0 0.00 0.00 0.00 69 1064.6
20260502013646 11 157 0.0 0.0 0.00 0.00 0.00 69 1064.6
20260502013539 11 180 0.0 0.0 0.00 0.00 0.00 69 1064.5
20260502013426 11 157 8.0 0.0 0.00 0.00 0.00 69 1064.6
20260502013314 11 157 6.4 0.0 0.00 0.00 0.00 68 1064.6
20260502013200 11 157 0.0 0.0 0.00 0.00 0.00 68 1064.6
20260502013046 11 157 0.0 0.0 0.00 0.00 0.00 68 1064.6
20260502012925 12 157 0.0 0.0 0.00 0.00 0.00 68 1064.6
20260502012815 12 157 0.0 0.0 0.00 0.00 0.00 68 1064.7
20260502012709 12 157 0.0 0.0 0.00 0.00 0.00 68 1064.7
20260502012603 12 157 0.0 0.0 0.00 0.00 0.00 68 1064.7
20260502012500 12 157 0.0 0.0 0.00 0.00 0.00 68 1064.8
20260502012352 12 157 0.0 0.0 0.00 0.00 0.00 68 1064.7
20260502012242 12 180 6.4 0.0 0.00 0.00 0.00 68 1064.8
20260502012135 12 180 0.0 0.0 0.00 0.00 0.00 68 1064.9
20260502012013 12 157 6.4 0.0 0.00 0.00 0.00 67 1064.8
20260502011902 12 180 6.4 0.0 0.00 0.00 0.00 67 1064.7
20260502011754 12 157 8.0 0.0 0.00 0.00 0.00 67 1064.8
20260502011635 12 157 0.0 0.0 0.00 0.00 0.00 67 1064.9
20260502011529 12 157 3.2 0.0 0.00 0.00 0.00 67 1065.0
20260502011415 12 180 0.0 0.0 0.00 0.00 0.00 67 1064.9
20260502011304 12 180 9.7 0.0 0.00 0.00 0.00 67 1064.8
20260502011158 12 157 0.0 0.0 0.00 0.00 0.00 67 1064.9
20260502011045 12 157 0.0 0.0 0.00 0.00 0.00 66 1065.0
20260502010942 12 180 9.7 0.0 0.00 0.00 0.00 66 1064.9
20260502010834 12 157 3.2 0.0 0.00 0.00 0.00 67 1065.0
20260502010713 12 157 6.4 0.0 0.00 0.00 0.00 66 1065.0
20260502010600 12 157 0.0 0.0 0.00 0.00 0.00 66 1065.0
20260502010439 12 180 0.0 0.0 0.00 0.00 0.00 66 1065.0
20260502010317 12 180 0.0 0.0 0.00 0.00 0.00 66 1065.1
20260502005953 12 180 0.0 0.0 0.00 0.00 0.00 66 1065.1
20260502005842 12 157 6.4 0.0 0.00 0.00 0.00 66 1065.1
20260502005736 12 180 6.4 0.0 0.00 0.00 0.00 66 1065.1
20260502005623 12 180 6.4 0.0 0.00 0.00 0.00 66 1065.1
20260502005502 12 157 9.7 0.0 0.00 0.00 0.00 66 1065.1
20260502005349 12 180 3.2 0.0 0.00 0.00 0.00 66 1065.2
20260502005228 12 180 9.7 0.0 0.00 0.00 0.00 65 1065.1
20260502005114 12 180 8.0 0.0 0.00 0.00 0.00 65 1065.1
20260502005001 12 180 11.3 0.0 0.00 0.00 0.00 65 1065.1
20260502004832 12 157 6.4 0.0 0.00 0.00 0.00 65 1065.2
20260502004719 12 180 3.2 0.0 0.00 0.00 0.00 65 1065.2
20260502004614 12 157 8.0 0.0 0.00 0.00 0.00 65 1065.1
20260502004453 12 157 8.0 0.0 0.00 0.00 0.00 65 1065.1
20260502004339 12 180 8.0 0.0 0.00 0.00 0.00 65 1065.2
20260502004227 12 180 9.7 0.0 0.00 0.00 0.00 65 1065.2
20260502004108 12 180 11.3 0.0 0.00 0.00 0.00 65 1065.2
20260502003953 12 180 9.7 0.0 0.00 0.00 0.00 65 1065.2
20260502003825 12 157 0.0 0.0 0.00 0.00 0.00 65 1065.2
20260502003711 12 157 9.7 0.0 0.00 0.00 0.00 65 1065.2
20260502003559 12 135 11.3 0.0 0.00 0.00 0.00 65 1065.2
20260502003445 12 135 8.0 0.0 0.00 0.00 0.00 65 1065.2
20260502003323 12 157 6.4 0.0 0.00 0.00 0.00 65 1065.2
20260502003213 13 157 9.7 0.0 0.00 0.00 0.00 65 1065.2
20260502003106 13 180 8.0 0.0 0.00 0.00 0.00 65 1065.2
20260502003000 13 157 8.0 0.0 0.00 0.00 0.00 65 1065.3
20260502002841 13 180 11.3 0.0 0.00 0.00 0.00 65 1065.3
20260502002723 13 157 6.4 0.0 0.00 0.00 0.00 65 1065.2
20260502002610 13 157 8.0 0.0 0.00 0.00 0.00 65 1065.3
20260502002505 13 180 8.0 0.0 0.00 0.00 0.00 65 1065.3
20260502002359 13 157 9.7 0.0 0.00 0.00 0.00 65 1065.3
20260502002246 13 157 9.7 0.0 0.00 0.00 0.00 65 1065.3
20260502002125 13 180 9.7 0.0 0.00 0.00 0.00 65 1065.3
20260502002011 13 180 8.0 0.0 0.00 0.00 0.00 65 1065.3
20260502001850 13 180 9.7 0.0 0.00 0.00 0.00 64 1065.4
20260502001739 13 157 8.0 0.0 0.00 0.00 0.00 64 1065.3
20260502001634 13 180 9.7 0.0 0.00 0.00 0.00 64 1065.4
20260502001529 13 180 0.0 0.0 0.00 0.00 0.00 64 1065.3
20260502001359 13 157 11.3 0.0 0.00 0.00 0.00 64 1065.3
20260502001232 13 157 0.0 0.0 0.00 0.00 0.00 64 1065.4
20260502001109 13 180 8.0 0.0 0.00 0.00 0.00 64 1065.4
20260502000946 13 157 8.0 0.0 0.00 0.00 0.00 64 1065.4
20260502000832 13 135 9.7 0.0 0.00 0.00 0.00 63 1065.3
20260502000728 13 157 0.0 0.0 0.00 0.00 0.00 63 1065.3
20260502000622 13 157 6.4 0.0 0.00 0.00 0.00 63 1065.4
20260502000508 13 157 9.7 0.0 0.00 0.00 0.00 63 1065.4
20260502000339 13 225 11.3 0.0 0.00 0.00 0.00 63 1065.4
20260502000218 13 135 8.0 0.0 0.00 0.00 0.00 62 1065.4
20260502000113 13 202 0.0 0.0 0.00 0.00 0.00 62 1065.4
20260502000007 13 157 0.0 0.0 0.00 0.00 0.00 62 1065.4
20260501235838 13 180 6.4 0.0 0.00 0.00 0.00 62 1065.4
20260501235725 13 157 6.4 0.0 0.00 0.00 0.00 62 1065.4
20260501235604 13 157 6.4 0.0 0.00 0.00 0.00 62 1065.5
20260501235443 13 157 0.0 0.0 0.00 0.00 0.00 62 1065.4
20260501235339 13 180 12.9 0.0 0.00 0.00 0.00 62 1065.5
20260501235233 13 157 11.3 0.0 0.00 0.00 0.00 62 1065.5
20260501235127 13 180 8.0 0.0 0.00 0.00 0.00 62 1065.4
20260501234958 13 180 11.3 0.0 0.00 0.00 0.00 61 1065.4
20260501234844 13 180 11.3 0.0 0.00 0.00 0.00 61 1065.5
20260501234716 13 180 6.4 0.0 0.00 0.00 0.00 61 1065.5
20260501234611 13 180 9.7 0.0 0.00 0.00 0.00 61 1065.4
20260501234458 13 157 12.9 0.0 0.00 0.00 0.00 61 1065.5
20260501234353 13 157 3.2 0.0 0.00 0.00 0.00 61 1065.4
20260501234248 13 180 9.7 0.0 0.00 0.00 0.00 61 1065.4
20260501234135 13 180 8.0 0.0 0.00 0.00 0.00 61 1065.6
20260501234032 13 180 1.6 0.0 0.00 0.00 0.00 61 1065.5
20260501233924 13 180 9.7 0.0 0.00 0.00 0.00 61 1065.5
20260501233813 13 180 11.3 0.0 0.00 0.00 0.00 61 1065.6
20260501233658 13 157 8.0 0.0 0.00 0.00 0.00 60 1065.5
20260501233545 13 180 3.2 0.0 0.00 0.00 0.00 60 1065.5
20260501233432 13 180 8.0 0.0 0.00 0.00 0.00 60 1065.5
20260501233310 13 157 6.4 0.0 0.00 0.00 0.00 60 1065.6
20260501233157 13 157 6.4 0.0 0.00 0.00 0.00 60 1065.5
20260501233044 13 157 9.7 0.0 0.00 0.00 0.00 60 1065.6
20260501232923 14 180 8.0 0.0 0.00 0.00 0.00 60 1065.6
20260501232810 14 157 6.4 0.0 0.00 0.00 0.00 60 1065.6
20260501232649 14 180 11.3 0.0 0.00 0.00 0.00 59 1065.6
20260501232536 14 157 0.0 0.0 0.00 0.00 0.00 59 1065.6
20260501232423 14 157 4.8 0.0 0.00 0.00 0.00 59 1065.6
20260501232318 14 157 0.0 0.0 0.00 0.00 0.00 59 1065.6
20260501232212 14 157 0.0 0.0 0.00 0.00 0.00 59 1065.6
20260501232045 14 157 6.4 0.0 0.00 0.00 0.00 59 1065.7
20260501231941 14 157 4.8 0.0 0.00 0.00 0.00 58 1065.6
20260501231833 14 157 0.0 0.0 0.00 0.00 0.00 58 1065.6
20260501231720 14 180 6.4 0.0 0.00 0.00 0.00 58 1065.7
20260501231558 14 157 6.4 0.0 0.00 0.00 0.00 58 1065.6
20260501231438 15 157 0.0 0.0 0.00 0.00 0.00 58 1065.6
20260501231318 15 157 0.0 0.0 0.00 0.00 0.00 58 1065.7
20260501231203 15 180 11.3 0.0 0.00 0.00 0.00 58 1065.6
20260501231050 15 157 6.4 0.0 0.00 0.00 0.00 58 1065.6
20260501230945 15 157 4.8 0.0 0.00 0.00 0.00 58 1065.7
20260501230834 15 157 0.0 0.0 0.00 0.00 0.00 58 1065.6
20260501230728 15 180 8.0 0.0 0.00 0.00 0.00 58 1065.7
20260501230617 15 157 1.6 0.0 0.00 0.00 0.00 57 1065.5
20260501230511 15 157 8.0 0.0 0.00 0.00 0.00 58 1065.7
20260501230407 15 157 0.0 0.0 0.00 0.00 0.00 57 1065.6
20260501230259 15 157 6.4 0.0 0.00 0.00 0.00 57 1065.6
20260501230139 15 180 9.7 0.0 0.00 0.00 0.00 57 1065.6
20260501230033 15 157 6.4 0.0 0.00 0.00 0.00 57 1065.7
20260501225928 15 157 4.8 0.0 0.00 0.00 0.00 57 1065.7
20260501225823 15 180 4.8 0.0 0.00 0.00 0.00 57 1065.6
20260501225717 15 180 8.0 0.0 0.00 0.00 0.00 57 1065.7
20260501225604 15 180 3.2 0.0 0.00 0.00 0.00 57 1065.6
20260501225450 15 157 9.7 0.0 0.00 0.00 0.00 57 1065.7
20260501225329 15 157 0.0 0.0 0.00 0.00 0.00 57 1065.7
20260501225207 15 157 3.2 0.0 0.00 0.00 0.00 57 1065.8
20260501225037 15 180 9.7 0.0 0.00 0.00 0.00 57 1065.6
20260501224924 15 157 3.2 0.0 0.00 0.00 0.00 57 1065.7
20260501224813 15 135 0.0 0.0 0.00 0.00 0.00 56 1065.7
20260501224708 15 157 0.0 0.0 0.00 0.00 0.00 56 1065.7
20260501224603 15 157 8.0 0.0 0.00 0.00 0.00 56 1065.8
20260501224457 15 180 9.7 0.0 0.00 0.00 0.00 56 1065.7
20260501224351 15 157 11.3 0.0 0.00 0.00 0.00 57 1065.7
20260501224238 15 157 0.0 0.0 0.00 0.00 0.00 57 1065.7
20260501224124 15 180 8.0 0.0 0.00 0.00 0.00 57 1065.7
20260501224013 15 157 3.2 0.0 0.00 0.00 0.00 56 1065.7
20260501223859 15 157 11.3 0.0 0.00 0.00 0.00 57 1065.7
20260501223752 15 157 6.4 0.0 0.00 0.00 0.00 56 1065.7
20260501223640 15 157 0.0 0.0 0.00 0.00 0.00 56 1065.8
20260501223534 15 157 0.0 0.0 0.00 0.00 0.00 56 1065.7
20260501223429 15 157 11.3 0.0 0.00 0.00 0.00 56 1065.8
20260501223308 15 157 6.4 0.0 0.00 0.00 0.00 56 1065.7
20260501223154 15 180 6.4 0.0 0.00 0.00 0.00 56 1065.7
20260501223042 15 157 6.4 0.0 0.00 0.00 0.00 56 1065.8
20260501222937 15 157 12.9 0.0 0.00 0.00 0.00 56 1065.9
20260501222831 15 157 8.0 0.0 0.00 0.00 0.00 56 1065.8
20260501222709 15 157 9.7 0.0 0.00 0.00 0.00 56 1065.9
20260501222541 15 157 0.0 0.0 0.00 0.00 0.00 56 1065.8
20260501222428 15 157 9.7 0.0 0.00 0.00 0.00 56 1065.9
20260501222315 15 157 3.2 0.0 0.00 0.00 0.00 56 1065.9
20260501222202 15 157 4.8 0.0 0.00 0.00 0.00 56 1065.9
20260501222050 15 157 3.2 0.0 0.00 0.00 0.00 56 1066.0
20260501221944 15 157 6.4 0.0 0.00 0.00 0.00 56 1066.0
20260501221830 15 157 0.0 0.0 0.00 0.00 0.00 56 1065.9
20260501221710 15 157 0.0 0.0 0.00 0.00 0.00 56 1066.1
20260501221605 15 157 4.8 0.0 0.00 0.00 0.00 56 1065.9
20260501221500 15 135 8.0 0.0 0.00 0.00 0.00 56 1065.9
20260501221354 15 180 3.2 0.0 0.00 0.00 0.00 56 1066.0
20260501221250 15 157 9.7 0.0 0.00 0.00 0.00 56 1066.0
20260501221144 15 135 6.4 0.0 0.00 0.00 0.00 55 1065.9
20260501221040 15 180 1.6 0.0 0.00 0.00 0.00 55 1066.0
20260501220935 15 157 0.0 0.0 0.00 0.00 0.00 55 1065.9
20260501220821 15 180 6.4 0.0 0.00 0.00 0.00 56 1066.0
20260501220702 15 157 6.4 0.0 0.00 0.00 0.00 55 1065.9
20260501220555 15 157 6.4 0.0 0.00 0.00 0.00 55 1065.9
20260501220442 15 135 0.0 0.0 0.00 0.00 0.00 55 1065.9
20260501220335 15 157 0.0 0.0 0.00 0.00 0.00 55 1065.9
20260501220215 15 180 9.7 0.0 0.00 0.00 0.00 55 1066.0
20260501220055 15 157 1.6 0.0 0.00 0.00 0.00 55 1066.0
20260501215948 15 157 0.0 0.0 0.00 0.00 0.00 55 1065.9
20260501215836 16 135 6.4 0.0 0.00 0.00 0.00 55 1065.9
20260501215724 16 157 1.6 0.0 0.00 0.00 0.00 55 1066.1
20260501215618 16 180 9.7 0.0 0.00 0.00 0.00 55 1066.0
20260501215505 16 157 11.3 0.0 0.00 0.00 0.00 55 1066.1
20260501215343 16 180 0.0 0.0 0.00 0.00 0.00 55 1066.1
20260501215223 16 157 0.0 0.0 0.00 0.00 0.00 55 1066.2
20260501215117 16 157 9.7 0.0 0.00 0.00 0.00 55 1066.2
20260501215004 16 157 0.0 0.0 0.00 0.00 0.00 55 1066.2
20260501214851 16 157 1.6 0.0 0.00 0.00 0.00 55 1066.2
20260501214730 16 157 3.2 0.0 0.00 0.00 0.00 55 1066.2
20260501214625 16 157 0.0 0.0 0.00 0.00 0.00 55 1066.3
20260501214505 16 180 0.0 0.0 0.00 0.00 0.00 55 1066.1
20260501214401 16 157 9.7 0.0 0.00 0.00 0.00 55 1066.3
20260501214253 16 157 0.0 0.0 0.00 0.00 0.00 55 1066.2
20260501214134 16 157 9.7 0.0 0.00 0.00 0.00 55 1066.2
20260501214027 16 157 0.0 0.0 0.00 0.00 0.00 55 1066.2
20260501213858 16 157 0.0 0.0 0.00 0.00 0.00 55 1066.2
20260501213753 16 157 0.0 0.0 0.00 0.00 0.00 55 1066.2
20260501213640 16 157 4.8 0.0 0.00 0.00 0.00 55 1066.2
20260501213526 16 157 3.2 0.0 0.00 0.00 0.00 54 1066.2
20260501213357 16 180 0.0 0.0 0.00 0.00 0.00 54 1066.2
20260501213245 16 180 0.0 0.0 0.00 0.00 0.00 54 1066.2
20260501213139 16 157 9.7 0.0 0.00 0.00 0.00 54 1066.3
20260501213034 16 157 0.0 0.0 0.00 0.00 0.00 54 1066.2
20260501212913 16 157 0.0 0.0 0.00 0.00 0.00 54 1066.2
20260501212808 16 180 0.0 0.0 0.00 0.00 0.00 54 1066.2
20260501212655 16 180 8.0 0.0 0.00 0.00 0.00 54 1066.2
20260501212542 16 157 0.0 0.0 0.00 0.00 0.00 54 1066.3
20260501212437 16 157 0.0 0.0 0.00 0.00 0.00 54 1066.2
20260501212315 16 157 6.4 0.0 0.00 0.00 0.00 54 1066.3
20260501212204 16 157 11.3 0.0 0.00 0.00 0.00 54 1066.3
20260501212057 16 157 12.9 0.0 0.00 0.00 0.00 54 1066.2
20260501211945 16 180 6.4 0.0 0.00 0.00 0.00 53 1066.3
20260501211840 16 157 0.0 0.0 0.00 0.00 0.00 53 1066.3
20260501211719 16 157 9.7 0.0 0.00 0.00 0.00 53 1066.3
20260501211613 16 157 0.0 0.0 0.00 0.00 0.00 53 1066.3
20260501211502 16 157 8.0 0.0 0.00 0.00 0.00 53 1066.3
20260501211355 16 180 0.0 0.0 0.00 0.00 0.00 53 1066.3
20260501211242 16 157 0.0 0.0 0.00 0.00 0.00 53 1066.3
20260501211136 16 157 0.0 0.0 0.00 0.00 0.00 53 1066.2
20260501211016 16 135 9.7 0.0 0.00 0.00 0.00 53 1066.3
20260501210910 16 157 0.0 0.0 0.00 0.00 0.00 53 1066.4
20260501210750 16 135 0.0 0.0 0.00 0.00 0.00 53 1066.4
20260501210644 16 157 12.9 0.0 0.00 0.00 0.00 53 1066.4
20260501210523 16 135 0.0 0.0 0.00 0.00 0.00 53 1066.4
20260501210412 16 135 0.0 0.0 0.00 0.00 0.00 53 1066.4
20260501210306 16 180 0.0 0.0 0.00 0.00 0.00 53 1066.4
20260501210202 16 157 0.0 0.0 0.00 0.00 0.00 52 1066.5
20260501210055 16 157 0.0 0.0 0.00 0.00 0.00 52 1066.4
20260501205942 16 157 0.0 0.0 0.00 0.00 0.00 52 1066.4
20260501205837 16 157 0.0 0.0 0.00 0.00 0.00 52 1066.4
20260501205723 16 157 8.0 0.0 0.00 0.00 0.00 52 1066.5
20260501205611 17 157 0.0 0.0 0.00 0.00 0.00 52 1066.4
20260501205506 17 157 0.0 0.0 0.00 0.00 0.00 52 1066.5
20260501205401 17 157 0.0 0.0 0.00 0.00 0.00 52 1066.5
20260501205247 17 157 0.0 0.0 0.00 0.00 0.00 52 1066.5
20260501205134 17 135 0.0 0.0 0.00 0.00 0.00 52 1066.5
20260501205030 17 157 0.0 0.0 0.00 0.00 0.00 52 1066.4
20260501204924 17 157 6.4 0.0 0.00 0.00 0.00 52 1066.4
20260501204819 17 157 9.7 0.0 0.00 0.00 0.00 52 1066.4
20260501204715 17 157 8.0 0.0 0.00 0.00 0.00 52 1066.5
20260501204609 17 157 0.0 0.0 0.00 0.00 0.00 52 1066.5
20260501204505 17 157 8.0 0.0 0.00 0.00 0.00 52 1066.5
20260501204400 17 157 0.0 0.0 0.00 0.00 0.00 52 1066.4
20260501204254 17 157 8.0 0.0 0.00 0.00 0.00 51 1066.5
20260501204150 17 157 9.7 0.0 0.00 0.00 0.00 51 1066.6
20260501204044 17 157 8.0 0.0 0.00 0.00 0.00 51 1066.5
20260501203931 17 157 6.4 0.0 0.00 0.00 0.00 51 1066.4
20260501203810 17 157 9.7 0.0 0.00 0.00 0.00 51 1066.4
20260501203648 17 157 0.0 0.0 0.00 0.00 0.00 51 1066.4
20260501203527 17 135 0.0 0.0 0.00 0.00 0.00 51 1066.4
20260501203414 17 157 6.4 0.0 0.00 0.00 0.00 51 1066.4
20260501203309 17 157 0.0 0.0 0.00 0.00 0.00 51 1066.5
20260501203156 17 180 11.3 0.0 0.00 0.00 0.00 51 1066.6
20260501203035 17 135 9.7 0.0 0.00 0.00 0.00 51 1066.6
20260501202913 17 157 0.0 0.0 0.00 0.00 0.00 51 1066.6
20260501202801 17 157 9.7 0.0 0.00 0.00 0.00 50 1066.6
20260501202649 17 157 0.0 0.0 0.00 0.00 0.00 50 1066.5
20260501202544 17 157 0.0 0.0 0.00 0.00 0.00 50 1066.5
20260501202437 17 157 0.0 0.0 0.00 0.00 0.00 50 1066.4
20260501202324 17 135 4.8 0.0 0.00 0.00 0.00 50 1066.4
20260501202219 17 157 0.0 0.0 0.00 0.00 0.00 50 1066.5
20260501202106 17 135 9.7 0.0 0.00 0.00 0.00 50 1066.4
20260501201945 17 157 0.0 0.0 0.00 0.00 0.00 50 1066.6
20260501201825 17 157 0.0 0.0 0.00 0.00 0.00 50 1066.6
20260501201710 17 135 8.0 0.0 0.00 0.00 0.00 50 1066.6
20260501201557 17 135 8.0 0.0 0.00 0.00 0.00 50 1066.6
20260501201444 17 135 11.3 0.0 0.00 0.00 0.00 50 1066.6
20260501201339 17 135 0.0 0.0 0.00 0.00 0.00 50 1066.6
20260501201220 17 157 8.0 0.0 0.00 0.00 0.00 50 1066.5
20260501201105 17 157 8.0 0.0 0.00 0.00 0.00 50 1066.5
20260501200952 17 135 0.0 0.0 0.00 0.00 0.00 50 1066.5
20260501200847 17 135 9.7 0.0 0.00 0.00 0.00 50 1066.6
20260501200733 17 135 12.9 0.0 0.00 0.00 0.00 49 1066.6
20260501200613 17 157 3.2 0.0 0.00 0.00 0.00 50 1066.6
20260501200510 17 157 6.4 0.0 0.00 0.00 0.00 50 1066.5
20260501200403 17 180 0.0 0.0 0.00 0.00 0.00 49 1066.6
20260501200258 17 135 6.4 0.0 0.00 0.00 0.00 49 1066.6
20260501200145 17 135 0.0 0.0 0.00 0.00 0.00 49 1066.6
20260501200039 17 135 9.7 0.0 0.00 0.00 0.00 49 1066.6
20260501195934 18 180 8.0 0.0 0.00 0.00 0.00 49 1066.6
20260501195829 18 157 12.9 0.0 0.00 0.00 0.00 49 1066.6
20260501195708 18 157 0.0 0.0 0.00 0.00 0.00 49 1066.6
20260501195546 18 157 3.2 0.0 0.00 0.00 0.00 49 1066.7
20260501195433 18 135 0.0 0.0 0.00 0.00 0.00 49 1066.7
20260501195321 18 157 0.0 0.0 0.00 0.00 0.00 49 1066.7
20260501195207 18 157 0.0 0.0 0.00 0.00 0.00 48 1066.8
20260501195055 18 135 0.0 0.0 0.00 0.00 0.00 48 1066.7
20260501194948 18 135 9.7 0.0 0.00 0.00 0.00 48 1066.7
20260501194838 18 135 0.0 0.0 0.00 0.00 0.00 48 1066.7
20260501194731 18 157 11.3 0.0 0.00 0.00 0.00 48 1066.7
20260501194626 18 135 8.0 0.0 0.00 0.00 0.00 48 1066.7
20260501194505 18 135 16.1 0.0 0.00 0.00 0.00 48 1066.7
20260501194400 18 157 11.3 0.0 0.00 0.00 0.00 48 1066.7
20260501194247 18 135 6.4 0.0 0.00 0.00 0.00 48 1066.7
20260501194142 18 135 9.7 0.0 0.00 0.00 0.00 48 1066.7
20260501194031 18 135 3.2 0.0 0.00 0.00 0.00 48 1066.6
20260501193925 18 135 0.0 0.0 0.00 0.00 0.00 48 1066.6
20260501193811 18 135 6.4 0.0 0.00 0.00 0.00 48 1066.6
20260501193705 18 157 6.4 0.0 0.00 0.00 0.00 48 1066.7
20260501193553 18 157 0.0 0.0 0.00 0.00 0.00 48 1066.7
20260501193439 18 157 6.4 0.0 0.00 0.00 0.00 48 1066.6
20260501193310 18 135 14.5 0.0 0.00 0.00 0.00 48 1066.6
20260501193157 18 157 6.4 0.0 0.00 0.00 0.00 48 1066.6
20260501193044 18 157 4.8 0.0 0.00 0.00 0.00 48 1066.6
20260501192930 18 157 0.0 0.0 0.00 0.00 0.00 48 1066.6
20260501192810 18 135 0.0 0.0 0.00 0.00 0.00 48 1066.6
20260501192704 18 157 3.2 0.0 0.00 0.00 0.00 48 1066.7
20260501192554 18 157 0.0 0.0 0.00 0.00 0.00 48 1066.7
20260501192446 18 157 11.3 0.0 0.00 0.00 0.00 48 1066.7
20260501192335 18 135 8.0 0.0 0.00 0.00 0.00 47 1066.7
20260501192228 18 135 6.4 0.0 0.00 0.00 0.00 47 1066.7
20260501192106 18 135 4.8 0.0 0.00 0.00 0.00 47 1066.7
20260501191937 18 135 0.0 0.0 0.00 0.00 0.00 47 1066.7
20260501191825 18 135 8.0 0.0 0.00 0.00 0.00 47 1066.7
20260501191703 18 135 9.7 0.0 0.00 0.00 0.00 47 1066.8
20260501191543 18 157 0.0 0.0 0.00 0.00 0.00 47 1066.8
20260501191437 18 135 0.0 0.0 0.00 0.00 0.00 47 1066.9
20260501191332 18 135 0.0 0.0 0.00 0.00 0.00 47 1066.8
20260501191221 18 135 3.2 0.0 0.00 0.00 0.00 46 1066.8
20260501191113 18 180 8.0 0.0 0.00 0.00 0.00 46 1066.9
20260501190952 18 157 0.0 0.0 0.00 0.00 0.00 46 1066.9
20260501190825 19 157 6.4 0.0 0.00 0.00 0.00 46 1066.9
20260501190710 19 157 0.0 0.0 0.00 0.00 0.00 46 1066.9
20260501190557 19 157 0.0 0.0 0.00 0.00 0.00 46 1066.9
20260501190446 19 157 0.0 0.0 0.00 0.00 0.00 45 1067.0
20260501190338 19 157 14.5 0.0 0.00 0.00 0.00 45 1066.9
20260501190219 19 157 0.0 0.0 0.00 0.00 0.00 45 1066.9
20260501190112 19 180 6.4 0.0 0.00 0.00 0.00 45 1066.9
20260501190000 19 135 0.0 0.0 0.00 0.00 0.00 45 1066.9
20260501185837 20 157 6.4 0.0 0.00 0.00 0.00 44 1066.8
20260501185708 20 157 0.0 0.0 0.00 0.00 0.00 44 1066.9
20260501185550 20 157 0.0 0.0 0.00 0.00 0.00 44 1066.9
20260501185435 20 135 0.0 0.0 0.00 0.00 0.00 44 1066.9
20260501185315 20 157 11.3 0.0 0.00 0.00 0.00 43 1066.9
20260501185201 20 157 0.0 0.0 0.00 0.00 0.00 43 1066.8
20260501185039 20 157 0.0 0.0 0.00 0.00 0.00 43 1066.8
20260501184921 20 157 6.4 0.0 0.00 0.00 0.00 43 1066.9
20260501184809 20 157 14.5 0.0 0.00 0.00 0.00 42 1066.9
20260501184702 20 135 0.0 0.0 0.00 0.00 0.00 42 1066.9
20260501184549 21 157 9.7 0.0 0.00 0.00 0.00 42 1066.9
20260501184427 21 157 8.0 0.0 0.00 0.00 0.00 42 1066.9
20260501184314 21 180 0.0 0.0 0.00 0.00 0.00 42 1067.0
20260501184200 21 180 0.0 0.0 0.00 0.00 0.00 41 1066.9
20260501184041 21 135 3.2 0.0 0.00 0.00 0.00 41 1067.0
20260501183936 21 135 0.0 0.0 0.00 0.00 0.00 41 1066.9
20260501183829 21 112 0.0 0.0 0.00 0.00 0.00 41 1066.9
20260501183708 21 135 0.0 0.0 0.00 0.00 0.00 41 1066.9
20260501183548 21 180 11.3 0.0 0.00 0.00 0.00 41 1066.9
20260501183435 21 157 0.0 0.0 0.00 0.00 0.00 41 1066.9
20260501183328 21 157 8.0 0.0 0.00 0.00 0.00 41 1066.8
20260501183209 21 157 0.0 0.0 0.00 0.00 0.00 40 1066.9
20260501183103 21 157 14.5 0.0 0.00 0.00 0.00 40 1066.9
20260501182949 21 157 0.0 0.0 0.00 0.00 0.00 40 1066.8
20260501182837 21 157 0.0 0.0 0.00 0.00 0.00 40 1066.8
20260501182723 21 180 9.7 0.0 0.00 0.00 0.00 40 1066.9
20260501182602 21 157 8.0 0.0 0.00 0.00 0.00 40 1066.8
20260501182448 21 180 9.7 0.0 0.00 0.00 0.00 40 1066.8
20260501182320 21 180 0.0 0.0 0.00 0.00 0.00 39 1066.8
20260501182207 21 157 0.0 0.0 0.00 0.00 0.00 39 1066.8